Gambell, AK

5:40 AM AKDT on October 20, 2017 (GMT -0800)
Gambell

Weather History for PAGM - January, 2014

Change the Weather History Date:

Sunday, January 12, 2014

  Actual Average Record
Temperature  
Mean Temperature -2 °F -  
Max Temperature 1 °F 9 °F 30 °F (2015)
Min Temperature -4 °F 1 °F -18 °F (2012)
Degree Days  
Heating Degree Days 66    
Moisture  
Dew Point -6 °F    
Average Humidity 79    
Maximum Humidity 85    
Minimum Humidity 66    
Precipitation  
Precipitation 51.48 in - - ()
Sea Level Pressure  
Sea Level Pressure 29.51 in    
Wind  
Wind Speed 32 mph (NE)    
Max Wind Speed 38 mph    
Max Gust Speed 45 mph    
Visibility 9 miles    
Events      
Averages and records for this station are not official NWS values.
T = Trace of Precipitation, MM = Missing Value Source: NWS Daily Summary

Daily Weather History Graph

Daily Weather History Graph

Search for Another Location

Airport or City:

Trip Planner

Search our weather history database for the weather conditions in past years. The results will help you decide how hot, cold, wet, or windy it might be!

Date:

Astronomy

Jan. 12, 2014 Rise Set
Actual Time 11:55 AM AKST 5:16 PM AKST
Civil Twilight 10:48 AM AKST 6:23 PM AKST
Nautical Twilight 9:44 AM AKST 7:27 PM AKST
Astronomical Twilight 8:46 AM AKST 8:24 PM AKST
Moon 3:04 PM AKST (1/12) 8:54 AM AKST (1/12)
Length of Visible Light 7h 35m
Length of Day
5h 20m
Waxing Gibbous, 90% of the Moon is Illuminated
Jan 12
Waxing Gibbous
Jan 15
Full
Jan 23
Last Quarter
Jan 30
New
Feb 6
First Quarter

Hourly Weather History & Observations

Time (AKST) Temp. Windchill Dew Point Humidity Pressure Visibility Wind Dir Wind Speed Gust Speed Precip Events Conditions
12:16 AM -0.4 °F -28.1 °F -5.8 °F 78% 29.51 in 10.0 mi NNE 35.7 mph 41.4 mph 0.39 in   Overcast
12:36 AM -0.4 °F -26.4 °F -5.8 °F 78% 29.52 in 10.0 mi NE 29.9 mph 39.1 mph 1.11 in   Overcast
12:56 AM -0.4 °F -27.5 °F -7.6 °F 72% 29.51 in 10.0 mi NNE 33.4 mph 42.6 mph 2.19 in   Overcast
1:16 AM -0.4 °F -27.1 °F -7.6 °F 72% 29.52 in 10.0 mi NE 32.2 mph 40.3 mph 1.37 in   Overcast
1:36 AM -0.4 °F -28.5 °F -7.6 °F 72% 29.51 in 10.0 mi NE 36.8 mph 42.6 mph 2.32 in   Overcast
1:56 AM - - - N/A% 29.49 in 9.0 mi NNE 38.0 mph 44.9 mph 3.71 in   Overcast
2:16 AM -0.4 °F -28.1 °F -9.4 °F 66% 29.50 in 10.0 mi NNE 35.7 mph 40.3 mph 1.50 in   Overcast
2:36 AM -2.2 °F -28.0 °F -7.6 °F 78% 29.52 in 10.0 mi NNE 27.6 mph 34.5 mph 2.14 in   Overcast
2:56 AM -2.2 °F -29.9 °F -7.6 °F 78% 29.51 in 10.0 mi NE 33.4 mph - 3.38 in   Overcast
3:16 AM -2.2 °F -29.2 °F -7.6 °F 78% 29.52 in 10.0 mi NE 31.1 mph - 0.80 in   Overcast
3:36 AM -2.2 °F -28.0 °F -9.4 °F 71% 29.52 in 10.0 mi NE 27.6 mph 35.7 mph 1.36 in   Overcast
3:56 AM -2.2 °F -28.4 °F -7.6 °F 78% 29.51 in 10.0 mi NNE 28.8 mph - 1.72 in   Overcast
4:16 AM -2.2 °F -28.8 °F -7.6 °F 78% 29.50 in 10.0 mi NNE 29.9 mph 34.5 mph 0.35 in   Overcast
4:36 AM -4.0 °F -31.3 °F -9.4 °F 78% 29.50 in 10.0 mi NNE 29.9 mph - 0.82 in   Overcast
4:56 AM -4.0 °F -32.4 °F -7.6 °F 85% 29.49 in 10.0 mi NNE 33.4 mph 36.8 mph 1.75 in   Overcast
5:16 AM -4.0 °F -31.6 °F -7.6 °F 85% 29.49 in 10.0 mi NNE 31.1 mph - 2.82 in   Overcast
5:36 AM -4.0 °F -31.6 °F -9.4 °F 78% 29.49 in 10.0 mi NNE 31.1 mph - 6.00 in   Overcast
5:56 AM -4.0 °F -31.6 °F -9.4 °F 78% 29.50 in 10.0 mi NNE 31.1 mph 34.5 mph 7.06 in   Overcast
6:16 AM -4.0 °F -31.6 °F -9.4 °F 78% 29.49 in 10.0 mi NNE 31.1 mph - 2.80 in   Overcast
6:36 AM -4.0 °F -31.3 °F -9.4 °F 78% 29.48 in 10.0 mi NNE 29.9 mph - 4.75 in   Overcast
6:56 AM -4.0 °F -32.0 °F -9.4 °F 78% 29.48 in 7.0 mi NNE 32.2 mph 35.7 mph 7.00 in   Overcast
7:16 AM -4.0 °F -31.6 °F -9.4 °F 78% 29.48 in 10.0 mi NE 31.1 mph - 1.75 in   Overcast
7:36 AM -4.0 °F -30.0 °F -9.4 °F 78% 29.47 in 3.0 mi NNE 26.5 mph 35.7 mph 3.57 in   Overcast
7:56 AM -4.0 °F -33.1 °F -9.4 °F 78% 29.47 in 6.0 mi NNE 35.7 mph 39.1 mph 4.68 in   Overcast
8:16 AM -4.0 °F -31.6 °F -7.6 °F 85% 29.48 in 8.0 mi NNE 31.1 mph - 0.91 in   Overcast
8:36 AM -2.2 °F -29.9 °F -7.6 °F 78% 29.47 in 3.0 mi NE 33.4 mph - 2.88 in   Overcast
8:56 AM -2.2 °F -28.4 °F -9.4 °F 71% 29.48 in 6.0 mi NE 28.8 mph - 4.03 in   Overcast
9:16 AM -2.2 °F -28.8 °F -7.6 °F 78% 29.48 in 5.0 mi NNE 29.9 mph 39.1 mph 0.51 in   Overcast
9:36 AM -2.2 °F -29.9 °F -7.6 °F 78% 29.47 in 10.0 mi NNE 33.4 mph - 1.10 in   Overcast
9:56 AM -2.2 °F -29.9 °F -7.6 °F 78% 29.48 in 4.0 mi NE 33.4 mph 36.8 mph 1.78 in   Overcast
10:16 AM -2.2 °F -28.8 °F -7.6 °F 78% 29.48 in 10.0 mi NE 29.9 mph 38.0 mph 0.31 in   Overcast
10:36 AM -2.2 °F -28.8 °F -7.6 °F 78% 29.49 in 10.0 mi NE 29.9 mph - 0.74 in   Overcast
10:56 AM -2.2 °F -28.0 °F -7.6 °F 78% 29.49 in 10.0 mi NE 27.6 mph 34.5 mph 1.00 in   Overcast
11:16 AM -2.2 °F -29.2 °F -7.6 °F 78% 29.49 in 10.0 mi NE 31.1 mph 34.5 mph 0.36 in   Overcast
11:36 AM -2.2 °F -29.9 °F -7.6 °F 78% 29.49 in 10.0 mi NE 33.4 mph 36.8 mph 0.56 in   Overcast
11:56 AM -2.2 °F -29.6 °F -7.6 °F 78% 29.50 in 10.0 mi NE 32.2 mph 35.7 mph 0.75 in   Overcast
12:16 PM -0.4 °F -26.0 °F -5.8 °F 78% 29.51 in 10.0 mi NE 28.8 mph 36.8 mph 0.24 in   Overcast
12:36 PM -0.4 °F -27.8 °F -5.8 °F 78% 29.50 in 10.0 mi NNE 34.5 mph - 0.41 in   Overcast
12:56 PM -0.4 °F -26.7 °F -7.6 °F 72% 29.50 in 10.0 mi NNE 31.1 mph 38.0 mph 0.74 in   Overcast
1:16 PM -0.4 °F -26.0 °F -5.8 °F 78% 29.51 in 10.0 mi NNE 28.8 mph 35.7 mph 0.30 in   Overcast
1:36 PM -0.4 °F -26.7 °F -5.8 °F 78% 29.51 in 10.0 mi NNE 31.1 mph 36.8 mph 0.69 in   Overcast
1:56 PM -0.4 °F -27.1 °F -5.8 °F 78% 29.51 in 6.0 mi NE 32.2 mph 38.0 mph 0.86 in   Overcast
2:16 PM -0.4 °F -25.6 °F -5.8 °F 78% 29.51 in 4.0 mi NNE 27.6 mph 31.1 mph 0.12 in   Overcast
2:36 PM -0.4 °F -26.4 °F -5.8 °F 78% 29.51 in 10.0 mi NE 29.9 mph 34.5 mph 0.46 in   Overcast
2:56 PM -0.4 °F -26.7 °F -5.8 °F 78% 29.51 in 10.0 mi NE 31.1 mph - 1.12 in   Overcast
3:16 PM -0.4 °F -26.4 °F -5.8 °F 78% 29.50 in 10.0 mi NE 29.9 mph - 0.53 in   Overcast
3:36 PM -0.4 °F -26.7 °F -7.6 °F 72% 29.50 in 10.0 mi NNE 31.1 mph 36.8 mph 0.93 in   Overcast
3:56 PM -0.4 °F -27.5 °F -5.8 °F 78% 29.50 in 10.0 mi NNE 33.4 mph 38.0 mph 1.50 in   Overcast
4:16 PM -0.4 °F -26.7 °F -5.8 °F 78% 29.50 in 10.0 mi NE 31.1 mph - 0.64 in   Overcast
4:36 PM 1.4 °F -23.9 °F -4.0 °F 78% 29.50 in 10.0 mi NE 29.9 mph 35.7 mph 1.01 in   Overcast
4:56 PM 1.4 °F -24.3 °F -2.2 °F 85% 29.50 in 10.0 mi NNE 31.1 mph 38.0 mph 1.19 in   Overcast
5:16 PM 1.4 °F -24.3 °F -2.2 °F 85% 29.50 in 10.0 mi NE 31.1 mph 35.7 mph 0.17 in   Overcast
5:36 PM 1.4 °F -25.0 °F -2.2 °F 85% 29.51 in 10.0 mi NE 33.4 mph 36.8 mph 0.27 in   Overcast
5:56 PM 1.4 °F -23.2 °F -2.2 °F 85% 29.51 in 10.0 mi NE 27.6 mph - 0.45 in   Overcast
6:16 PM 1.4 °F -24.6 °F -2.2 °F 85% 29.52 in 10.0 mi NNE 32.2 mph 38.0 mph 0.11 in   Overcast
6:36 PM 1.4 °F -24.3 °F -4.0 °F 78% 29.52 in 10.0 mi NE 31.1 mph 38.0 mph 0.21 in   Overcast
6:56 PM 1.4 °F -24.3 °F -4.0 °F 78% 29.53 in 10.0 mi NNE 31.1 mph - 0.32 in   Overcast
7:16 PM 1.4 °F -24.3 °F -4.0 °F 78% 29.53 in 10.0 mi NNE 31.1 mph - 0.36 in   Overcast
7:36 PM 1.4 °F -22.3 °F -4.0 °F 78% 29.54 in 10.0 mi NE 25.3 mph 32.2 mph 1.02 in   Overcast
7:56 PM 1.4 °F -23.2 °F -2.2 °F 85% 29.54 in 10.0 mi NNE 27.6 mph - 1.59 in   Overcast
8:16 PM 1.4 °F -23.5 °F -2.2 °F 85% 29.54 in 10.0 mi NNE 28.8 mph - 0.73 in   Overcast
8:36 PM 1.4 °F -23.2 °F -2.2 °F 85% 29.55 in 10.0 mi NE 27.6 mph 33.4 mph 1.20 in   Overcast
8:56 PM 1.4 °F -22.7 °F -2.2 °F 85% 29.55 in 10.0 mi NE 26.5 mph - 1.51 in   Overcast
9:16 PM 1.4 °F -22.7 °F -2.2 °F 85% 29.55 in 10.0 mi NE 26.5 mph 32.2 mph 1.30 in   Overcast
9:36 PM 1.4 °F -23.2 °F -2.2 °F 85% 29.56 in 10.0 mi NNE 27.6 mph - 1.65 in   Overcast
9:56 PM 1.4 °F -24.3 °F -2.2 °F 85% 29.56 in 10.0 mi NNE 31.1 mph 35.7 mph 1.96 in   Overcast
10:16 PM 1.4 °F -23.5 °F -5.8 °F 72% 29.56 in 10.0 mi NE 28.8 mph 34.5 mph 0.06 in   Mostly Cloudy
10:36 PM 1.4 °F -21.9 °F -4.0 °F 78% 29.57 in 10.0 mi NE 24.2 mph 33.4 mph 0.18 in   Mostly Cloudy
10:56 PM -0.4 °F -26.4 °F -5.8 °F 78% 29.57 in 10.0 mi NE 29.9 mph 33.4 mph 0.43 in   Mostly Cloudy
11:16 PM -0.4 °F -26.0 °F -5.8 °F 78% 29.57 in 10.0 mi NNE 28.8 mph 33.4 mph 0.32 in   Mostly Cloudy
11:36 PM -0.4 °F -26.0 °F -5.8 °F 78% 29.58 in 10.0 mi NE 28.8 mph 33.4 mph 0.53 in   Overcast
11:56 PM -0.4 °F -25.6 °F -5.8 °F 78% 29.58 in 10.0 mi NE 27.6 mph 31.1 mph 0.76 in   Overcast